www.pogodaiklimat.ru

Погода и климат >> Архив погоды >> Россия >> Краснодарский край >> Красная Поляна


АРХИВ ПОГОДЫ в Красной Поляне

Время (UTC), дата Ветер
(напр.,м/с)
 
Видим.   Явления Облачность Т
(С)
Тd
(С)
f
(%)
Тe
(С)
Тes
(С)
Комфортность P
(гПа)
Po
(гПа)
Тmin
(С)
Tmax
(С)
R
(мм)
R24
(мм)
S
(см)
06 19.08 ЮВ 1 20 км 1/1 1000 м
[Cu hum]
+23.5 +16.5 65 +27 +35 душно 1013.3 950.2 +19.0
09 19.08 ЮЗ 3 20 км 3/3 1000 м
[Cu hum Ci sp]
+26.6 +19.0 63 +32 +41 очень
душно
1012.3 949.9
12 19.08 ЮЗ 4 20 км 4/4 600 м
[Cu med, cong]
+27.1 +20.4 67 +34 +38 очень
душно
1011.5 949.3
15 19.08 ЮЗ 1 20 км 1/1 600 м
[Sc]
+24.6 +20.9 80 +31 +32 очень
душно
1012.3 949.6 +28.3
18 19.08 штиль 0 20 км 10/10 600 м
[Sc]
+22.8 +22.8 100 +31 +31 очень
душно
1014.5 951.4
21 19.08 ЮЗ 1 20 км 10/10 600 м
[St]
+22.1 +21.3 95 +29 +29 очень
душно
1015.3 951.9
00 20.08 С 1 20 км 9/9 600 м
[Sc]
+21.2 +20.5 96 +26 +26 душно 1015.3 951.7
03 20.08 С 1 9000 м дымка 10/8 60 м
[St Ci sp]
+19.5 +19.5 100 +23 +23 комфорт 1016.0 952.0 +19.5
06 20.08 Ю 1 20 км 4/3 1500 м
[Cu med, cong Ac cast Ci sp]
+24.4 +19.5 74 +30 +36 очень
душно
1014.9 951.9 +19.4
09 20.08 ЮЗ 2 20 км 6/4 1000 м
[Cu med, cong Ac cast Cs]
+27.5 +20.8 67 +34 +42 очень
душно
1013.1 950.9
12 20.08 ЮЗ 2 20 км 9/8 600 м
[Cb calv Ac cast Cs]
+28.1 +21.9 69 +36 +38 очень
душно
1012.4 950.4
15 20.08 ЮЗ 1 20 км 10/8 630 м
[Cb calv Ac cuf Cs]
+24.6 +22.3 87 +32 +32 очень
душно
1013.8 951.1 +28.5
18 20.08 СВ 2
{10}
20 км в посл. час гроза {ливн. осадки} 10/4 1000 м
[Cb calv Ac As]
+22.0 +20.8 93 +28 +28 душно 1015.0 951.6
21 20.08 СВ 1 20 км 9/6 660 м
[Sc Ac cuf]
+21.0 +20.7 98 +27 +27 душно 1015.8 952.1
00 21.08 штиль 0 20 км 10/8 800 м
[Sc Ac As]
+19.9 +19.9 100 +23 +23 комфорт 1015.5 951.6
03 21.08 СВ 1 20 км 8/3 1500 м
[Sc Ac cuf Ci sp]
+19.3 +19.3 100 +23 +23 комфорт 1015.0 951.0 +19.2 15
06 21.08 В 2 20 км 4/0
[Ac As Ci fib]
+23.7 +18.1 71 +28 +35 душно 1013.2 950.2
09 21.08 ЮЗ 2 20 км ясно +28.2 +18.9 57 +33 +49 очень
душно
1010.0 948.1
12 21.08 ЮЗ 1 20 км 1/1 1500 м
[Cu hum]
+29.9 +22.4 64 +39 +50 очень
душно
1007.6 946.3
15 21.08 З 1 20 км 4/1 1500 м
[Cu med, cong Ci fib]
+27.0 +23.0 79 +36 +37 очень
душно
1007.3 945.5 +30.1
18 21.08 З 2 9000 м дымка 10/10 120 м
[Sc]
+23.5 +23.5 100 +32 +32 очень
душно
1010.0 947.3
21 21.08 СВ 3 20 км {гроза, ливн. осадки} 3/0
[Ci fib]
+21.6 +20.6 94 +27 +27 душно 1011.6 948.3
00 22.08 штиль 0 19 км {гроза, ливн. осадки} 8/8 1500 м
[Sc]
+19.8 +19.8 100 +23 +23 комфорт 1011.4 947.7
03 22.08 С 1 20 км 3/3 1500 м
[Sc]
+19.9 +19.2 96 +24 +24 комфорт 1010.8 947.2 +19.3 1
06 22.08 В 1 20 км 1/0
[Ac As]
+23.6 +18.3 72 +28 +36 душно 1010.7 947.8
09 22.08 З 2 20 км 10/9 600 м
[Sc Ac As]
+26.1 +20.4 71 +32 +33 очень
душно
1008.8 946.6
12 22.08 ЮЗ 2 20 км 10/8 1500 м
[Sc Ac As Cc]
+28.1 +20.4 63 +35 +36 очень
душно
1008.7 946.9
15 22.08 З 1 20 км 10/3 300 м
[St Ac As Cs]
+24.3 +22.7 91 +32 +32 очень
душно
1009.3 946.8 +28.8
18 22.08 З 2 11 км 10/10 400 м
[St]
+22.8 +22.8 100 +31 +31 очень
душно
1011.0 948.1
21 22.08 СВ 1 20 км 10/10 360 м
[St]
+22.3 +21.6 96 +29 +29 очень
душно
1010.7 947.7
00 23.08 С 1 18 км гроза, ливневой дождь 10/10 600 м
[Cb cap]
+21.9 +21.6 98 +28 +28 душно 1012.4 949.2
03 23.08 СВ 1 19 км гроза без осадков {ливн. осадки} 10/10 1500 м
[Cb cap]
+19.6 +19.6 100 +24 +24 комфорт 1011.5 947.8 +19.5 3
06 23.08 ЮВ 2 20 км {гроза, ливн. осадки} 10/4 1500 м
[Sc Ac lent Cs]
+22.6 +18.6 78 +28 +30 душно 1012.2 949.0 +19.1
09 23.08 ЮЗ 1 20 км 10/0
[Ac lent Cc]
+25.9 +18.6 64 +31 +42 очень
душно
1010.7 948.3
12 23.08 ЮЗ 4 20 км 10/4 1000 м
[Cu med, cong Cs]
+26.9 +21.2 71 +34 +37 очень
душно
1010.5 948.4
15 23.08 Ю 1 20 км 10/5 1000 м
[Sc Ac lent Cs]
+25.3 +21.6 80 +32 +33 очень
душно
1011.0 948.5 +27.7
18 23.08 С 1 20 км 6/3 600 м
[Sc Ci fib]
+21.8 +19.0 84 +27 +27 душно 1013.0 949.6
21 23.08 В 1 20 км 9/9 300 м
[St]
+21.0 +19.1 89 +27 +27 душно 1013.8 950.2
00 24.08 В 2 13 км слаб. ливневой дождь 10/10 1000 м
[Cb cap]
+19.9 +19.7 99 +24 +24 комфорт 1013.3 949.5
03 24.08 штиль 0 20 км {ливн. осадки} 10/10 1500 м
[Sc diur, vesp]
+18.7 +18.7 100 +20 +20 1014.2 950.1 +18.6 0.5
06 24.08 ЮВ 1 20 км {ливн. осадки} 10/10 1500 м
[Sc]
+20.6 +18.4 87 +26 +26 душно 1014.4 950.7 +18.5
09 24.08 З 1 20 км 10/0
[Ac As]
+25.0 +19.8 73 +31 +36 очень
душно
1013.0 950.3
12 24.08 З 2 20 км 10/8 1080 м
[Sc Ac As]
+25.9 +19.8 69 +32 +32 очень
душно
1013.2 950.7
15 24.08 В 2 19 км гроза, ливневой дождь 10/10 1000 м
[Cb cap]
+22.1 +17.7 76 +27 +27 душно 1015.7 952.2 +26.8 0.0
18 24.08 С 1 20 км {гроза, ливн. осадки} 3/3 600 м
[Sc]
+18.0 +18.0 100 +19 +19 1017.0 952.5
21 24.08 С 2 20 км 10/10 600 м
[Sc]
+17.4 +16.1 92 +18 +18 1017.6 952.9
00 25.08 СВ 1 20 км 4/3 600 м
[Sc Ac As]
+16.2 +16.2 100 +17 +17 1016.9 952.0
03 25.08 В 1 20 км 6/3 1500 м
[Sc Ac cast]
+16.1 +16.1 100 +17 +17 1017.1 952.2 +15.8 2
06 25.08 ЮЗ 1 20 км 6/4 1500 м
[Sc Ac As]
+20.8 +16.2 75 +25 +29 комфорт 1016.0 952.1
09 25.08 З 2 19 км 4/3 1500 м
[Cu med, cong Ac As]
+26.4 +18.0 60 +31 +40 душно 1013.9 951.4
12 25.08 З 2 20 км гроза без осадков 10/10 1000 м
[Cb cap]
+24.2 +19.5 75 +29 +29 душно 1014.3 951.3
15 25.08 С 1 17 км {гроза, ливн. осадки} 6/6 1000 м
[Cu Sc]
+21.2 +21.2 100 +27 +27 душно 1015.4 951.8 +28.0 4
18 25.08 С 1 15 км {гроза, ливн. осадки} 3/0
[Ac As]
+19.3 +19.3 100 +23 +23 комфорт 1016.7 952.6
21 25.08 С 2 20 км ясно +17.8 +17.6 99 +18 +18 1017.0 952.5
00 26.08 С 1 20 км ясно +16.0 +16.0 100 +17 +17 1016.8 951.9

 

Местоположение метеостанции Красная Поляна (Краснодарский край, Россия): широта 43.68 долгота 40.20 высота над уровнем моря 567 м.

В архиве по умолчанию представлена погода в Красной Поляне за последнюю неделю. Архивные данные за месяц целиком и за предыдущие месяцы, начиная с января 2011 года, Вы можете получить, выбрав интересующий диапазон дат из раскрывающегося списка и нажав кнопку "Ввод!".


*Определитесь, кто Вы:
робот инопланетянин человек

Внимание! Время в таблицах - всемирное. Для получения местного времени необходимо прибавить поправку, которая равна 3 ч.

Смотрите также архив погоды в соседних городах и на ближайших метеорологических станциях:

Погода в Горная Карусель 1500 (Краснодарский край, Россия) (8 км)
Погода в Горная Карусель 1000 (Краснодарский край, Россия) (8 км)
Погода на Кордоне Лаура (Краснодарский край, Россия) (8 км)
Погода в Кепше (Краснодарский край, Россия) (14 км)
Погода в Гузерипле (Адыгея, Россия) (36 км)
Погода в Сочи (Краснодарский край, Россия) (36 км)
Погода в Сочи аэропорт (Адлере) (Краснодарский край, Россия) (37 км)
Погода в Имеретинке (Краснодарский край, Россия) (37 км)
Погода в Солох Ауле (Краснодарский край, Россия) (48 км)
Погода в Кичмае (Краснодарский край, Россия) (58 км)

Пояснения к столбцам:

Ветер - указаны скорость ветра в м/с - средняя за 10 мин, порывы в срок и между сроками (в фигурных скобках) и направление, откуда дует ветер: С - северный, СВ - северо-восточный, В - восточный, ЮВ - юго-восточный, Ю - южный, ЮЗ - юго-западный, З - западный, СЗ - северо-западный.
Видимость - горизонтальная дальность видимости в метрах или километрах. При видимости от 1 до 10 км при отсутствии осадков обычно наблюдается дымка, при ухудшении видимости до 1 км и менее - туман. В сухую погоду видимость может ухудшаться дымом, пылью или мглою.
Явления - указаны атмосферные явления, наблюдавшиеся в срок или в последний час перед сроком; фигурными скобками обозначены явления, наблюдавшиеся между сроками (за 1-3 часа до срока); квадратными скобками обозначены град или гололедные отложения с указанием их диаметра в мм.
Облачность - указаны через наклонную черту общая и нижняя облачность в баллах и высота нижней границы облаков в метрах; квадратными скобками обозначены формы облаков: Ci - перистые, Cs - перисто-слоистые, Cc - перисто-кучевые, Ac - высококучевые, As - высокослоистые, Sc - слоисто-кучевые, Ns - слоисто-дождевые, Cu - кучевые, Cb - кучево-дождевые. Подробнее классификацию облаков см. в Атласе облаков (PDF).
T - Температура воздуха - температура, измеренная на высоте 2 м над землей.
Td - Температура точки росы - температура, при понижении до которой содержащийся в воздухе водяной пар достигнет насыщения.
f - Относительная влажность воздуха - влажноcть воздуха, измеренная на высоте 2 м над землей.
Te - Эффективная температура - температура, которую ощущает одетый по сезону человек в тени. Характеристика душности погоды. При расчете учитывается влияние влажности воздуха и скорости ветра на теплоощущения человека.
Tes - Эффективная температура на солнце - температура, которую ощущает человек, с поправкой на солнечный нагрев. Характеристика знойности погоды. Зависит от высоты солнца над горизонтом, облачности и скорости ветра. Ночью, в пасмурную погоду, а также при ветре 12 м/с и более поправка равна нулю.
P - Атмосферное давление - приведенное к уровню моря атмосферное давление.
Po - Атмосферное давление - измеренное на уровне метеостанции атмосферное давление.
Tmin - Минимальная температура - минимум температуры воздуха на высоте 2 м над землей.
Tmax - Максимальная температура - максимум температуры воздуха на высоте 2 м над землей.
R - Количество осадков - Количество выпавших осадков за период времени, мм. При наведении курсора мыши на число - период времени, за который выпало указанное количество осадков.
R24 - Количество осадков - Количество выпавших осадков за 24 часа, мм.
S - Снежный покров - Высота снежного покрова, см. При наведении курсора мыши на число - состояние снежного покрова и степень покрытия местности в баллах.